Location: Alexander
(41.3564°N, 81.5960°W)
Time: 07:50:27
(UTC+00:00)

Cosmos 405 - Pass Details

Date: 24 January 2021
Orbit: 448 x 462 km, 81.3° (Epoch: 02 March)

Event Time Altitude Azimuth Distance (km) Brightness Sun altitude
Rises 23:39:12 0° 3° (N) 2,502 6.5 -12.5°
Reaches altitude 10° 23:41:34 10° 17° (NNE) 1,620 5.4 -12.9°
Maximum altitude 23:44:32 25° 74° (ENE) 982 4.0 -13.5°
Enters shadow 23:45:05 24° 90° (E) 1,010 4.1 -13.6°
